| time (UTC) | temp F | wind direction | speed MPH | gust MPH | rain 1hr in | rain 24hr in | rain mn in | humidity % | barometer mb |
| 20260509170749 | 78 | 0 | 8.0 | 16.0 | 0.00 | 0.00 | 0.00 | 31 | 1012.1 |
| 20260509170300 | 77 | 0 | 8.0 | 20.0 | 0.00 | 0.00 | 0.00 | 31 | 1012.1 |
| 20260509170010 | 77 | 0 | 8.0 | 20.0 | 0.00 | 0.00 | 0.00 | 32 | 1012.2 |
| 20260509165850 | 77 | 0 | 8.0 | 20.0 | 0.00 | 0.00 | 0.00 | 32 | 1012.2 |
| 20260509165511 | 77 | 0 | 8.0 | 18.0 | 0.00 | 0.00 | 0.00 | 32 | 1012.2 |
| 20260509165350 | 77 | 0 | 8.0 | 18.0 | 0.00 | 0.00 | 0.00 | 32 | 1012.2 |
| 20260509164716 | 76 | 0 | 9.0 | 18.0 | 0.00 | 0.00 | 0.00 | 32 | 1012.2 |
| 20260509164216 | 76 | 0 | 9.0 | 22.0 | 0.00 | 0.00 | 0.00 | 33 | 1012.3 |
| 20260509163659 | 76 | 0 | 9.0 | 22.0 | 0.00 | 0.00 | 0.00 | 32 | 1012.3 |
| 20260509163155 | 76 | 0 | 8.0 | 20.0 | 0.00 | 0.00 | 0.00 | 33 | 1012.2 |
| 20260509162653 | 76 | 0 | 8.0 | 20.0 | 0.00 | 0.00 | 0.00 | 33 | 1012.3 |
| 20260509162149 | 75 | 0 | 8.0 | 21.0 | 0.00 | 0.00 | 0.00 | 34 | 1012.3 |
| 20260509161624 | 75 | 0 | 8.0 | 21.0 | 0.00 | 0.00 | 0.00 | 33 | 1012.3 |
| 20260509161118 | 74 | 0 | 6.0 | 20.0 | 0.00 | 0.00 | 0.00 | 34 | 1012.3 |
| 20260509160552 | 74 | 0 | 7.0 | 14.0 | 0.00 | 0.00 | 0.00 | 36 | 1012.4 |
| 20260509160104 | 73 | 0 | 9.0 | 20.0 | 0.00 | 0.00 | 0.00 | 36 | 1012.4 |
| 20260509155522 | 73 | 0 | 10.0 | 24.0 | 0.00 | 0.00 | 0.00 | 35 | 1012.4 |
| 20260509154957 | 72 | 0 | 10.0 | 25.0 | 0.00 | 0.00 | 0.00 | 35 | 1012.6 |
| 20260509154701 | 72 | 0 | 8.0 | 25.0 | 0.00 | 0.00 | 0.00 | 36 | 1012.5 |
| 20260509154534 | 72 | 0 | 8.0 | 25.0 | 0.00 | 0.00 | 0.00 | 36 | 1012.5 |
| 20260509154150 | 71 | 0 | 7.0 | 20.0 | 0.00 | 0.00 | 0.00 | 38 | 1012.5 |
| 20260509154031 | 71 | 0 | 7.0 | 20.0 | 0.00 | 0.00 | 0.00 | 38 | 1012.5 |
| 20260509153426 | 71 | 0 | 8.0 | 24.0 | 0.00 | 0.00 | 0.00 | 38 | 1012.7 |
| 20260509153416 | 70 | 0 | 8.0 | 24.0 | 0.00 | 0.00 | 0.00 | 39 | 1012.8 |
| 20260509153025 | 70 | 0 | 8.0 | 24.0 | 0.00 | 0.00 | 0.00 | 39 | 1012.8 |
| 20260509152358 | 69 | 0 | 10.0 | 20.0 | 0.00 | 0.00 | 0.00 | 39 | 1013.0 |
| 20260509151859 | 69 | 0 | 10.0 | 20.0 | 0.00 | 0.00 | 0.00 | 39 | 1012.8 |
| 20260509151353 | 69 | 0 | 9.0 | 20.0 | 0.00 | 0.00 | 0.00 | 40 | 1012.8 |
| 20260509150826 | 68 | 0 | 9.0 | 20.0 | 0.00 | 0.00 | 0.00 | 40 | 1013.0 |
| 20260509150330 | 68 | 0 | 9.0 | 18.0 | 0.00 | 0.00 | 0.00 | 40 | 1013.2 |
| 20260509145818 | 67 | 0 | 8.0 | 23.0 | 0.00 | 0.00 | 0.00 | 41 | 1013.4 |
| 20260509145253 | 67 | 0 | 9.0 | 23.0 | 0.00 | 0.00 | 0.00 | 41 | 1013.4 |
| 20260509144727 | 66 | 0 | 9.0 | 18.0 | 0.00 | 0.00 | 0.00 | 41 | 1013.4 |
| 20260509144220 | 65 | 0 | 7.0 | 18.0 | 0.00 | 0.00 | 0.00 | 42 | 1013.4 |
| 20260509143938 | 64 | 0 | 6.0 | 14.0 | 0.00 | 0.00 | 0.00 | 46 | 1013.3 |
| 20260509143821 | 64 | 0 | 6.0 | 14.0 | 0.00 | 0.00 | 0.00 | 46 | 1013.3 |
| 20260509143150 | 63 | 0 | 6.0 | 13.0 | 0.00 | 0.00 | 0.00 | 48 | 1013.5 |
| 20260509142647 | 62 | 0 | 5.0 | 13.0 | 0.00 | 0.00 | 0.00 | 49 | 1013.6 |
| 20260509142135 | 62 | 0 | 5.0 | 13.0 | 0.00 | 0.00 | 0.00 | 51 | 1013.4 |
| 20260509141609 | 61 | 0 | 5.0 | 11.0 | 0.00 | 0.00 | 0.00 | 52 | 1013.4 |
| 20260509141043 | 61 | 0 | 5.0 | 11.0 | 0.00 | 0.00 | 0.00 | 52 | 1013.4 |
| 20260509140802 | 60 | 0 | 5.0 | 11.0 | 0.00 | 0.00 | 0.00 | 52 | 1013.5 |
| 20260509140644 | 60 | 0 | 5.0 | 11.0 | 0.00 | 0.00 | 0.00 | 52 | 1013.5 |
| 20260509140033 | 60 | 0 | 5.0 | 11.0 | 0.00 | 0.00 | 0.00 | 52 | 1013.5 |
| 20260509135528 | 60 | 0 | 5.0 | 12.0 | 0.00 | 0.00 | 0.00 | 53 | 1013.7 |
| 20260509135003 | 59 | 0 | 5.0 | 12.0 | 0.00 | 0.00 | 0.00 | 53 | 1013.8 |
| 20260509134503 | 59 | 0 | 6.0 | 11.0 | 0.00 | 0.00 | 0.00 | 53 | 1013.9 |
| 20260509133937 | 59 | 0 | 6.0 | 13.0 | 0.00 | 0.00 | 0.00 | 53 | 1013.7 |
| 20260509133411 | 59 | 0 | 6.0 | 13.0 | 0.00 | 0.00 | 0.00 | 53 | 1013.7 |
| 20260509132855 | 58 | 0 | 6.0 | 13.0 | 0.00 | 0.00 | 0.00 | 54 | 1013.6 |
| 20260509132400 | 58 | 0 | 5.0 | 13.0 | 0.00 | 0.00 | 0.00 | 54 | 1013.6 |
| 20260509131852 | 58 | 0 | 5.0 | 10.0 | 0.00 | 0.00 | 0.00 | 54 | 1013.5 |
| 20260509131350 | 58 | 0 | 6.0 | 11.0 | 0.00 | 0.00 | 0.00 | 55 | 1013.4 |
| 20260509131112 | 58 | 0 | 5.0 | 11.0 | 0.00 | 0.00 | 0.00 | 56 | 1013.4 |
| 20260509130955 | 58 | 0 | 5.0 | 11.0 | 0.00 | 0.00 | 0.00 | 56 | 1013.4 |
| 20260509130349 | 57 | 0 | 5.0 | 11.0 | 0.00 | 0.00 | 0.00 | 57 | 1013.3 |
| 20260509125838 | 57 | 0 | 5.0 | 11.0 | 0.00 | 0.00 | 0.00 | 57 | 1013.2 |
| 20260509125536 | 57 | 0 | 6.0 | 13.0 | 0.00 | 0.00 | 0.00 | 57 | 1013.2 |
| 20260509125418 | 57 | 0 | 6.0 | 13.0 | 0.00 | 0.00 | 0.00 | 57 | 1013.2 |
| 20260509124750 | 56 | 0 | 7.0 | 13.0 | 0.00 | 0.00 | 0.00 | 58 | 1013.3 |
| 20260509124514 | 56 | 0 | 6.0 | 15.0 | 0.00 | 0.00 | 0.00 | 59 | 1013.4 |
| 20260509124353 | 56 | 0 | 6.0 | 15.0 | 0.00 | 0.00 | 0.00 | 59 | 1013.4 |
| 20260509123726 | 56 | 0 | 5.0 | 15.0 | 0.00 | 0.00 | 0.00 | 60 | 1013.3 |
| 20260509123151 | 55 | 0 | 4.0 | 12.0 | 0.00 | 0.00 | 0.00 | 61 | 1013.3 |
| 20260509122631 | 55 | 0 | 4.0 | 10.0 | 0.00 | 0.00 | 0.00 | 61 | 1013.0 |
| 20260509122107 | 55 | 0 | 4.0 | 10.0 | 0.00 | 0.00 | 0.00 | 62 | 1013.1 |
| 20260509121605 | 55 | 0 | 4.0 | 9.0 | 0.00 | 0.00 | 0.00 | 62 | 1013.3 |
| 20260509121113 | 55 | 0 | 5.0 | 11.0 | 0.00 | 0.00 | 0.00 | 63 | 1013.2 |
| 20260509120754 | 54 | 0 | 5.0 | 11.0 | 0.00 | 0.00 | 0.00 | 63 | 1013.1 |
| 20260509120641 | 54 | 0 | 5.0 | 11.0 | 0.00 | 0.00 | 0.00 | 63 | 1013.1 |
| 20260509120007 | 54 | 0 | 4.0 | 9.0 | 0.00 | 0.00 | 0.00 | 64 | 1013.0 |
| 20260509115448 | 54 | 0 | 3.0 | 6.0 | 0.00 | 0.00 | 0.00 | 64 | 1013.0 |
| 20260509114926 | 53 | 0 | 2.0 | 6.0 | 0.00 | 0.00 | 0.00 | 65 | 1012.8 |
| 20260509114428 | 53 | 0 | 2.0 | 5.0 | 0.00 | 0.00 | 0.00 | 65 | 1012.7 |
| 20260509113925 | 53 | 0 | 2.0 | 5.0 | 0.00 | 0.00 | 0.00 | 66 | 1012.6 |
| 20260509113402 | 53 | 0 | 2.0 | 6.0 | 0.00 | 0.00 | 0.00 | 66 | 1012.7 |
| 20260509112900 | 52 | 0 | 2.0 | 6.0 | 0.00 | 0.00 | 0.00 | 66 | 1012.7 |
| 20260509112621 | 52 | 0 | 2.0 | 5.0 | 0.00 | 0.00 | 0.00 | 67 | 1012.7 |
| 20260509112503 | 52 | 0 | 2.0 | 5.0 | 0.00 | 0.00 | 0.00 | 67 | 1012.7 |
| 20260509111839 | 52 | 0 | 2.0 | 5.0 | 0.00 | 0.00 | 0.00 | 67 | 1012.8 |
| 20260509111327 | 52 | 0 | 2.0 | 4.0 | 0.00 | 0.00 | 0.00 | 67 | 1012.8 |
| 20260509111313 | 51 | 0 | 3.0 | 4.0 | 0.00 | 0.00 | 0.00 | 68 | 1012.8 |
| 20260509110932 | 51 | 0 | 3.0 | 4.0 | 0.00 | 0.00 | 0.00 | 68 | 1012.8 |
| 20260509110323 | 51 | 0 | 3.0 | 5.0 | 0.00 | 0.00 | 0.00 | 68 | 1012.7 |
| 20260509110008 | 51 | 0 | 2.0 | 6.0 | 0.00 | 0.00 | 0.00 | 69 | 1013.0 |
| 20260509105858 | 51 | 0 | 3.0 | 5.0 | 0.00 | 0.00 | 0.00 | 69 | 1013.0 |
| 20260509105347 | 51 | 0 | 2.0 | 6.0 | 0.00 | 0.00 | 0.00 | 69 | 1013.0 |
| 20260509104742 | 50 | 0 | 3.0 | 6.0 | 0.00 | 0.00 | 0.00 | 69 | 1013.0 |
| 20260509104237 | 50 | 0 | 2.0 | 6.0 | 0.00 | 0.00 | 0.00 | 69 | 1013.0 |
| 20260509103738 | 50 | 0 | 2.0 | 6.0 | 0.00 | 0.00 | 0.00 | 69 | 1012.8 |
| 20260509103237 | 50 | 0 | 1.0 | 4.0 | 0.00 | 0.00 | 0.00 | 69 | 1012.8 |
| 20260509102731 | 50 | 0 | 1.0 | 4.0 | 0.00 | 0.00 | 0.00 | 68 | 1012.8 |
| 20260509102214 | 50 | 0 | 2.0 | 5.0 | 0.00 | 0.00 | 0.00 | 68 | 1013.0 |
| 20260509101644 | 50 | 0 | 2.0 | 5.0 | 0.00 | 0.00 | 0.00 | 68 | 1013.1 |
| 20260509101119 | 50 | 0 | 2.0 | 6.0 | 0.00 | 0.00 | 0.00 | 67 | 1013.1 |
| 20260509100604 | 50 | 0 | 3.0 | 6.0 | 0.00 | 0.00 | 0.00 | 67 | 1013.2 |
| 20260509100052 | 50 | 0 | 3.0 | 5.0 | 0.00 | 0.00 | 0.00 | 67 | 1013.2 |
| 20260509095513 | 50 | 0 | 2.0 | 5.0 | 0.00 | 0.00 | 0.00 | 67 | 1013.3 |
| 20260509095005 | 50 | 0 | 2.0 | 5.0 | 0.00 | 0.00 | 0.00 | 66 | 1013.2 |
| 20260509094509 | 50 | 0 | 2.0 | 5.0 | 0.00 | 0.00 | 0.00 | 66 | 1013.2 |
| 20260509094314 | 50 | 0 | 2.0 | 6.0 | 0.00 | 0.00 | 0.00 | 66 | 1013.3 |
| 20260509094242 | 50 | 0 | 2.0 | 6.0 | 0.00 | 0.00 | 0.00 | 66 | 1013.3 |
| 20260509093810 | 50 | 0 | 2.0 | 5.0 | 0.00 | 0.00 | 0.00 | 65 | 1013.3 |
| 20260509093739 | 50 | 0 | 2.0 | 5.0 | 0.00 | 0.00 | 0.00 | 65 | 1013.3 |
| 20260509092912 | 50 | 0 | 3.0 | 6.0 | 0.00 | 0.00 | 0.00 | 66 | 1013.3 |
| 20260509092346 | 50 | 0 | 3.0 | 6.0 | 0.00 | 0.00 | 0.00 | 66 | 1013.4 |
| 20260509091821 | 49 | 0 | 3.0 | 6.0 | 0.00 | 0.00 | 0.00 | 67 | 1013.5 |
| 20260509091304 | 49 | 0 | 2.0 | 4.0 | 0.00 | 0.00 | 0.00 | 67 | 1013.4 |
| 20260509090750 | 49 | 0 | 2.0 | 3.0 | 0.00 | 0.00 | 0.00 | 68 | 1013.4 |
| 20260509090226 | 49 | 0 | 2.0 | 3.0 | 0.00 | 0.00 | 0.00 | 68 | 1013.3 |
| 20260509085725 | 49 | 0 | 1.0 | 4.0 | 0.00 | 0.00 | 0.00 | 68 | 1013.4 |
| 20260509085222 | 49 | 0 | 1.0 | 4.0 | 0.00 | 0.00 | 0.00 | 68 | 1013.3 |
| 20260509085047 | 49 | 0 | 1.0 | 3.0 | 0.00 | 0.00 | 0.00 | 69 | 1013.4 |
| 20260509085008 | 49 | 0 | 1.0 | 3.0 | 0.00 | 0.00 | 0.00 | 69 | 1013.4 |
| 20260509084216 | 49 | 0 | 2.0 | 3.0 | 0.00 | 0.00 | 0.00 | 69 | 1013.4 |
| 20260509083713 | 49 | 0 | 2.0 | 4.0 | 0.00 | 0.00 | 0.00 | 69 | 1013.4 |
| 20260509083200 | 48 | 0 | 2.0 | 4.0 | 0.00 | 0.00 | 0.00 | 69 | 1013.4 |
| 20260509082657 | 48 | 0 | 2.0 | 4.0 | 0.00 | 0.00 | 0.00 | 69 | 1013.4 |
| 20260509082150 | 48 | 0 | 2.0 | 4.0 | 0.00 | 0.00 | 0.00 | 69 | 1013.4 |
| 20260509081913 | 48 | 0 | 1.0 | 6.0 | 0.00 | 0.00 | 0.00 | 69 | 1013.4 |
| 20260509081750 | 48 | 0 | 1.0 | 6.0 | 0.00 | 0.00 | 0.00 | 69 | 1013.4 |
| 20260509081133 | 48 | 0 | 0.0 | 1.0 | 0.00 | 0.00 | 0.00 | 70 | 1013.5 |
| 20260509080629 | 48 | 0 | 0.0 | 1.0 | 0.00 | 0.00 | 0.00 | 70 | 1013.4 |
| 20260509080336 | 48 | 0 | 0.0 | 3.0 | 0.00 | 0.00 | 0.00 | 70 | 1013.5 |
| 20260509080221 | 48 | 0 | 0.0 | 3.0 | 0.00 | 0.00 | 0.00 | 70 | 1013.5 |
| 20260509075616 | 48 | 0 | 1.0 | 3.0 | 0.00 | 0.00 | 0.00 | 69 | 1013.5 |
| 20260509075116 | 48 | 0 | 1.0 | 3.0 | 0.00 | 0.00 | 0.00 | 69 | 1013.5 |
| 20260509074618 | 48 | 0 | 1.0 | 3.0 | 0.00 | 0.00 | 0.00 | 68 | 1013.5 |
| 20260509074050 | 48 | 0 | 1.0 | 3.0 | 0.00 | 0.00 | 0.00 | 68 | 1013.4 |
| 20260509073521 | 48 | 0 | 1.0 | 2.0 | 0.00 | 0.00 | 0.00 | 68 | 1013.5 |
| 20260509073219 | 48 | 0 | 0.0 | 2.0 | 0.00 | 0.00 | 0.00 | 68 | 1013.4 |
| 20260509073101 | 48 | 0 | 0.0 | 2.0 | 0.00 | 0.00 | 0.00 | 68 | 1013.4 |
| 20260509072429 | 49 | 0 | 0.0 | 2.0 | 0.00 | 0.00 | 0.00 | 68 | 1013.6 |
| 20260509071924 | 49 | 0 | 0.0 | 2.0 | 0.00 | 0.00 | 0.00 | 68 | 1013.6 |
| 20260509071424 | 49 | 0 | 0.0 | 2.0 | 0.00 | 0.00 | 0.00 | 67 | 1013.7 |
| 20260509070918 | 50 | 0 | 0.0 | 0.0 | 0.00 | 0.00 | 0.00 | 66 | 1013.7 |
| 20260509070351 | 50 | 0 | 0.0 | 1.0 | 0.00 | 0.00 | 0.00 | 65 | 1013.7 |
| 20260509065846 | 51 | 0 | 0.0 | 1.0 | 0.00 | 0.00 | 0.00 | 64 | 1013.8 |
| 20260509065344 | 51 | 0 | 0.0 | 1.0 | 0.00 | 0.00 | 0.00 | 63 | 1013.7 |
| 20260509064839 | 51 | 0 | 0.0 | 1.0 | 0.00 | 0.00 | 0.00 | 63 | 1013.8 |
| 20260509064537 | 51 | 0 | 0.0 | 1.0 | 0.00 | 0.00 | 0.00 | 63 | 1013.9 |
| 20260509064419 | 51 | 0 | 0.0 | 1.0 | 0.00 | 0.00 | 0.00 | 63 | 1013.9 |
| 20260509063808 | 51 | 0 | 1.0 | 3.0 | 0.00 | 0.00 | 0.00 | 63 | 1013.8 |
| 20260509063254 | 51 | 0 | 1.0 | 3.0 | 0.00 | 0.00 | 0.00 | 63 | 1014.1 |
| 20260509063010 | 51 | 0 | 1.0 | 2.0 | 0.00 | 0.00 | 0.00 | 62 | 1013.8 |
| 20260509062855 | 51 | 0 | 1.0 | 2.0 | 0.00 | 0.00 | 0.00 | 62 | 1013.8 |
| 20260509062445 | 51 | 0 | 1.0 | 2.0 | 0.00 | 0.00 | 0.00 | 63 | 1013.9 |
| 20260509062329 | 51 | 0 | 1.0 | 2.0 | 0.00 | 0.00 | 0.00 | 63 | 1013.9 |
| 20260509062000 | 51 | 0 | 1.0 | 2.0 | 0.00 | 0.00 | 0.00 | 63 | 1014.1 |
| 20260509061829 | 51 | 0 | 1.0 | 2.0 | 0.00 | 0.00 | 0.00 | 63 | 1014.1 |
| 20260509061219 | 51 | 0 | 1.0 | 2.0 | 0.00 | 0.00 | 0.00 | 63 | 1014.1 |
| 20260509060654 | 52 | 0 | 1.0 | 2.0 | 0.00 | 0.00 | 0.00 | 63 | 1014.2 |
| 20260509060140 | 52 | 0 | 0.0 | 1.0 | 0.00 | 0.00 | 0.00 | 62 | 1014.2 |
| 20260509055639 | 52 | 0 | 0.0 | 1.0 | 0.00 | 0.00 | 0.00 | 62 | 1014.2 |
| 20260509055346 | 52 | 0 | 0.0 | 1.0 | 0.00 | 0.00 | 0.00 | 63 | 1014.3 |
| 20260509055230 | 52 | 0 | 0.0 | 1.0 | 0.00 | 0.00 | 0.00 | 63 | 1014.3 |
| 20260509054546 | 52 | 0 | 0.0 | 2.0 | 0.00 | 0.00 | 0.00 | 62 | 1014.3 |
| 20260509054021 | 52 | 0 | 0.0 | 2.0 | 0.00 | 0.00 | 0.00 | 62 | 1014.4 |
| 20260509053837 | 52 | 0 | 1.0 | 2.0 | 0.00 | 0.00 | 0.00 | 63 | 1014.4 |
| 20260509053750 | 52 | 0 | 1.0 | 2.0 | 0.00 | 0.00 | 0.00 | 63 | 1014.4 |
| 20260509052935 | 52 | 0 | 2.0 | 5.0 | 0.00 | 0.00 | 0.00 | 63 | 1014.4 |
| 20260509052406 | 51 | 0 | 2.0 | 5.0 | 0.00 | 0.00 | 0.00 | 63 | 1014.5 |
| 20260509051840 | 51 | 0 | 1.0 | 2.0 | 0.00 | 0.00 | 0.00 | 64 | 1014.6 |
| 20260509051337 | 52 | 0 | 0.0 | 0.0 | 0.00 | 0.00 | 0.00 | 64 | 1014.6 |
| 20260509050834 | 52 | 0 | 0.0 | 0.0 | 0.00 | 0.00 | 0.00 | 64 | 1014.5 |
| 20260509050328 | 52 | 0 | 0.0 | 0.0 | 0.00 | 0.00 | 0.00 | 63 | 1014.4 |
| 20260509045826 | 52 | 0 | 0.0 | 0.0 | 0.00 | 0.00 | 0.00 | 63 | 1014.5 |
| 20260509045300 | 52 | 0 | 0.0 | 0.0 | 0.00 | 0.00 | 0.00 | 63 | 1014.6 |
| 20260509044947 | 52 | 0 | 0.0 | 0.0 | 0.00 | 0.00 | 0.00 | 62 | 1014.6 |
| 20260509044835 | 52 | 0 | 0.0 | 0.0 | 0.00 | 0.00 | 0.00 | 62 | 1014.6 |
| 20260509044232 | 52 | 0 | 0.0 | 0.0 | 0.00 | 0.00 | 0.00 | 62 | 1014.7 |
| 20260509043659 | 53 | 0 | 0.0 | 0.0 | 0.00 | 0.00 | 0.00 | 61 | 1014.7 |
| 20260509043646 | 53 | 0 | 0.0 | 1.0 | 0.00 | 0.00 | 0.00 | 61 | 1014.7 |
| 20260509043302 | 53 | 0 | 0.0 | 1.0 | 0.00 | 0.00 | 0.00 | 61 | 1014.7 |
| 20260509042628 | 54 | 0 | 0.0 | 0.0 | 0.00 | 0.00 | 0.00 | 60 | 1014.6 |
| 20260509042323 | 55 | 0 | 0.0 | 0.0 | 0.00 | 0.00 | 0.00 | 60 | 1014.6 |
| 20260509042207 | 55 | 0 | 0.0 | 0.0 | 0.00 | 0.00 | 0.00 | 60 | 1014.6 |
| 20260509041604 | 55 | 0 | 0.0 | 0.0 | 0.00 | 0.00 | 0.00 | 58 | 1014.8 |
| 20260509041046 | 56 | 0 | 0.0 | 0.0 | 0.00 | 0.00 | 0.00 | 57 | 1014.8 |
| 20260509040545 | 56 | 0 | 0.0 | 0.0 | 0.00 | 0.00 | 0.00 | 57 | 1014.8 |
| 20260509040023 | 57 | 0 | 0.0 | 1.0 | 0.00 | 0.00 | 0.00 | 56 | 1014.7 |
| 20260509035522 | 57 | 0 | 0.0 | 1.0 | 0.00 | 0.00 | 0.00 | 55 | 1014.6 |
| 20260509035009 | 58 | 0 | 0.0 | 3.0 | 0.00 | 0.00 | 0.00 | 54 | 1014.5 |
| 20260509034442 | 58 | 0 | 0.0 | 3.0 | 0.00 | 0.00 | 0.00 | 52 | 1014.5 |
| 20260509033921 | 58 | 0 | 1.0 | 5.0 | 0.00 | 0.00 | 0.00 | 49 | 1014.4 |
| 20260509033359 | 59 | 0 | 1.0 | 5.0 | 0.00 | 0.00 | 0.00 | 48 | 1014.3 |
| 20260509032852 | 60 | 0 | 0.0 | 2.0 | 0.00 | 0.00 | 0.00 | 50 | 1014.3 |
| 20260509032339 | 60 | 0 | 0.0 | 0.0 | 0.00 | 0.00 | 0.00 | 50 | 1014.3 |
| 20260509031833 | 61 | 0 | 0.0 | 0.0 | 0.00 | 0.00 | 0.00 | 49 | 1014.4 |
| 20260509031547 | 61 | 0 | 0.0 | 0.0 | 0.00 | 0.00 | 0.00 | 46 | 1014.3 |
| 20260509031426 | 61 | 0 | 0.0 | 0.0 | 0.00 | 0.00 | 0.00 | 46 | 1014.3 |
| 20260509030754 | 62 | 0 | 0.0 | 0.0 | 0.00 | 0.00 | 0.00 | 45 | 1014.2 |
| 20260509030249 | 62 | 0 | 0.0 | 0.0 | 0.00 | 0.00 | 0.00 | 44 | 1014.3 |
| 20260509030222 | 62 | 0 | 0.0 | 0.0 | 0.00 | 0.00 | 0.00 | 44 | 1014.2 |
| 20260509025833 | 62 | 0 | 0.0 | 0.0 | 0.00 | 0.00 | 0.00 | 44 | 1014.2 |
| 20260509025208 | 63 | 0 | 0.0 | 0.0 | 0.00 | 0.00 | 0.00 | 42 | 1014.1 |
| 20260509024648 | 63 | 0 | 0.0 | 0.0 | 0.00 | 0.00 | 0.00 | 41 | 1013.8 |
| 20260509024127 | 64 | 0 | 0.0 | 0.0 | 0.00 | 0.00 | 0.00 | 41 | 1013.8 |
| 20260509023841 | 65 | 0 | 0.0 | 0.0 | 0.00 | 0.00 | 0.00 | 42 | 1013.8 |
| 20260509023710 | 65 | 0 | 0.0 | 0.0 | 0.00 | 0.00 | 0.00 | 42 | 1013.8 |
| 20260509023046 | 65 | 0 | 0.0 | 2.0 | 0.00 | 0.00 | 0.00 | 41 | 1013.8 |
| 20260509022743 | 66 | 0 | 0.0 | 2.0 | 0.00 | 0.00 | 0.00 | 39 | 1013.9 |
| 20260509022630 | 66 | 0 | 0.0 | 2.0 | 0.00 | 0.00 | 0.00 | 39 | 1013.9 |
| 20260509022016 | 66 | 0 | 0.0 | 0.0 | 0.00 | 0.00 | 0.00 | 38 | 1013.8 |
| 20260509021726 | 67 | 0 | 0.0 | 0.0 | 0.00 | 0.00 | 0.00 | 37 | 1013.7 |
| 20260509021604 | 67 | 0 | 0.0 | 0.0 | 0.00 | 0.00 | 0.00 | 37 | 1013.7 |
| 20260509021001 | 67 | 0 | 0.0 | 0.0 | 0.00 | 0.00 | 0.00 | 36 | 1013.7 |
| 20260509020825 | 67 | 0 | 0.0 | 0.0 | 0.00 | 0.00 | 0.00 | 35 | 1013.7 |
| 20260509020755 | 67 | 0 | 0.0 | 0.0 | 0.00 | 0.00 | 0.00 | 35 | 1013.7 |
| 20260509020249 | 68 | 0 | 0.0 | 0.0 | 0.00 | 0.00 | 0.00 | 35 | 1013.6 |
| 20260509015500 | 69 | 0 | 0.0 | 0.0 | 0.00 | 0.00 | 0.00 | 34 | 1013.6 |
| 20260509014930 | 69 | 0 | 0.0 | 0.0 | 0.00 | 0.00 | 0.00 | 34 | 1013.6 |
| 20260509014424 | 69 | 0 | 0.0 | 0.0 | 0.00 | 0.00 | 0.00 | 33 | 1013.5 |
| 20260509013918 | 70 | 0 | 0.0 | 0.0 | 0.00 | 0.00 | 0.00 | 33 | 1013.4 |
| 20260509013636 | 70 | 0 | 0.0 | 1.0 | 0.00 | 0.00 | 0.00 | 32 | 1013.4 |
| 20260509013523 | 70 | 0 | 0.0 | 1.0 | 0.00 | 0.00 | 0.00 | 32 | 1013.4 |
| 20260509012849 | 70 | 0 | 0.0 | 1.0 | 0.00 | 0.00 | 0.00 | 31 | 1013.4 |
| 20260509012556 | 71 | 0 | 0.0 | 1.0 | 0.00 | 0.00 | 0.00 | 30 | 1013.3 |
| 20260509012425 | 71 | 0 | 0.0 | 1.0 | 0.00 | 0.00 | 0.00 | 30 | 1013.3 |
| 20260509011827 | 71 | 0 | 0.0 | 2.0 | 0.00 | 0.00 | 0.00 | 30 | 1013.3 |
| 20260509011317 | 71 | 0 | 0.0 | 4.0 | 0.00 | 0.00 | 0.00 | 30 | 1013.3 |
| 20260509010823 | 72 | 0 | 0.0 | 4.0 | 0.00 | 0.00 | 0.00 | 30 | 1013.3 |
| 20260509010314 | 72 | 0 | 0.0 | 4.0 | 0.00 | 0.00 | 0.00 | 28 | 1013.5 |
| 20260509005814 | 73 | 0 | 0.0 | 4.0 | 0.00 | 0.00 | 0.00 | 28 | 1013.4 |
| 20260509005309 | 73 | 0 | 0.0 | 2.0 | 0.00 | 0.00 | 0.00 | 28 | 1013.4 |
| 20260509004743 | 73 | 0 | 1.0 | 5.0 | 0.00 | 0.00 | 0.00 | 28 | 1013.4 |
| 20260509004214 | 74 | 0 | 1.0 | 6.0 | 0.00 | 0.00 | 0.00 | 27 | 1013.3 |
| 20260509003649 | 74 | 0 | 2.0 | 6.0 | 0.00 | 0.00 | 0.00 | 27 | 1013.4 |
| 20260509003122 | 74 | 0 | 3.0 | 9.0 | 0.00 | 0.00 | 0.00 | 27 | 1013.4 |
| 20260509003108 | 75 | 0 | 3.0 | 9.0 | 0.00 | 0.00 | 0.00 | 27 | 1013.5 |
| 20260509002731 | 75 | 0 | 3.0 | 9.0 | 0.00 | 0.00 | 0.00 | 27 | 1013.5 |
| 20260509002050 | 75 | 0 | 4.0 | 9.0 | 0.00 | 0.00 | 0.00 | 25 | 1013.5 |
| 20260509001546 | 75 | 0 | 4.0 | 9.0 | 0.00 | 0.00 | 0.00 | 25 | 1013.4 |
| 20260509001022 | 76 | 0 | 2.0 | 8.0 | 0.00 | 0.00 | 0.00 | 25 | 1013.4 |
| 20260509000720 | 76 | 0 | 2.0 | 6.0 | 0.00 | 0.00 | 0.00 | 27 | 1013.4 |
| 20260509000556 | 76 | 0 | 2.0 | 6.0 | 0.00 | 0.00 | 0.00 | 27 | 1013.4 |
| 20260508235925 | 75 | 0 | 2.0 | 6.0 | 0.00 | 0.00 | 0.00 | 27 | 1013.5 |
| 20260508235359 | 75 | 0 | 2.0 | 8.0 | 0.00 | 0.00 | 0.00 | 27 | 1013.6 |
| 20260508234847 | 75 | 0 | 2.0 | 8.0 | 0.00 | 0.00 | 0.00 | 28 | 1013.5 |
| 20260508234338 | 75 | 0 | 2.0 | 8.0 | 0.00 | 0.00 | 0.00 | 27 | 1013.5 |
| 20260508234106 | 75 | 0 | 2.0 | 8.0 | 0.00 | 0.00 | 0.00 | 26 | 1013.5 |
| 20260508233942 | 75 | 0 | 2.0 | 8.0 | 0.00 | 0.00 | 0.00 | 26 | 1013.5 |
| 20260508233308 | 75 | 0 | 3.0 | 9.0 | 0.00 | 0.00 | 0.00 | 27 | 1013.5 |
| 20260508232739 | 75 | 0 | 4.0 | 9.0 | 0.00 | 0.00 | 0.00 | 27 | 1013.6 |
| 20260508232213 | 75 | 0 | 4.0 | 12.0 | 0.00 | 0.00 | 0.00 | 26 | 1013.6 |
| 20260508231931 | 75 | 0 | 5.0 | 12.0 | 0.00 | 0.00 | 0.00 | 25 | 1013.6 |
| 20260508231814 | 75 | 0 | 5.0 | 12.0 | 0.00 | 0.00 | 0.00 | 25 | 1013.6 |
| 20260508231144 | 76 | 0 | 6.0 | 14.0 | 0.00 | 0.00 | 0.00 | 26 | 1013.6 |
| 20260508230641 | 76 | 0 | 4.0 | 14.0 | 0.00 | 0.00 | 0.00 | 26 | 1013.6 |
| 20260508230138 | 77 | 0 | 2.0 | 8.0 | 0.00 | 0.00 | 0.00 | 25 | 1013.7 |
| 20260508225612 | 76 | 0 | 2.0 | 8.0 | 0.00 | 0.00 | 0.00 | 26 | 1013.6 |
| 20260508225111 | 76 | 0 | 3.0 | 10.0 | 0.00 | 0.00 | 0.00 | 27 | 1013.7 |
| 20260508224614 | 75 | 0 | 3.0 | 10.0 | 0.00 | 0.00 | 0.00 | 28 | 1013.6 |
| 20260508224110 | 75 | 0 | 3.0 | 10.0 | 0.00 | 0.00 | 0.00 | 28 | 1013.6 |
| 20260508223610 | 74 | 0 | 3.0 | 9.0 | 0.00 | 0.00 | 0.00 | 28 | 1013.6 |
| 20260508223041 | 74 | 0 | 3.0 | 9.0 | 0.00 | 0.00 | 0.00 | 27 | 1013.8 |
| 20260508222537 | 75 | 0 | 4.0 | 13.0 | 0.00 | 0.00 | 0.00 | 27 | 1013.7 |
| 20260508222012 | 74 | 0 | 4.0 | 13.0 | 0.00 | 0.00 | 0.00 | 28 | 1013.7 |
| 20260508221446 | 74 | 0 | 5.0 | 14.0 | 0.00 | 0.00 | 0.00 | 28 | 1013.6 |
| 20260508220941 | 75 | 0 | 5.0 | 14.0 | 0.00 | 0.00 | 0.00 | 26 | 1013.7 |
| 20260508220440 | 76 | 0 | 4.0 | 13.0 | 0.00 | 0.00 | 0.00 | 27 | 1013.6 |
| 20260508215938 | 75 | 0 | 4.0 | 13.0 | 0.00 | 0.00 | 0.00 | 27 | 1013.7 |
| 20260508215444 | 75 | 0 | 5.0 | 13.0 | 0.00 | 0.00 | 0.00 | 28 | 1013.6 |
| 20260508214937 | 75 | 0 | 5.0 | 12.0 | 0.00 | 0.00 | 0.00 | 26 | 1013.6 |
| 20260508214401 | 76 | 0 | 6.0 | 14.0 | 0.00 | 0.00 | 0.00 | 27 | 1013.7 |
| 20260508213857 | 76 | 0 | 6.0 | 13.0 | 0.00 | 0.00 | 0.00 | 25 | 1013.7 |
| 20260508213354 | 76 | 0 | 5.0 | 13.0 | 0.00 | 0.00 | 0.00 | 26 | 1013.8 |
| 20260508212827 | 76 | 0 | 3.0 | 13.0 | 0.00 | 0.00 | 0.00 | 26 | 1013.8 |
| 20260508212325 | 75 | 0 | 4.0 | 13.0 | 0.00 | 0.00 | 0.00 | 26 | 1013.9 |
| 20260508211819 | 75 | 0 | 6.0 | 17.0 | 0.00 | 0.00 | 0.00 | 27 | 1014.1 |
| 20260508211308 | 76 | 0 | 5.0 | 17.0 | 0.00 | 0.00 | 0.00 | 26 | 1014.1 |
| 20260508211135 | 76 | 0 | 4.0 | 11.0 | 0.00 | 0.00 | 0.00 | 27 | 1013.9 |
| 20260508211104 | 76 | 0 | 4.0 | 11.0 | 0.00 | 0.00 | 0.00 | 27 | 1013.9 |
| 20260508210244 | 76 | 0 | 4.0 | 14.0 | 0.00 | 0.00 | 0.00 | 27 | 1014.1 |
| 20260508205726 | 76 | 0 | 4.0 | 14.0 | 0.00 | 0.00 | 0.00 | 27 | 1014.2 |
| 20260508205221 | 75 | 0 | 4.0 | 13.0 | 0.00 | 0.00 | 0.00 | 29 | 1014.3 |
| 20260508204717 | 74 | 0 | 5.0 | 13.0 | 0.00 | 0.00 | 0.00 | 29 | 1014.4 |
| 20260508204211 | 74 | 0 | 6.0 | 17.0 | 0.00 | 0.00 | 0.00 | 27 | 1014.4 |
| 20260508203647 | 74 | 0 | 4.0 | 17.0 | 0.00 | 0.00 | 0.00 | 28 | 1014.4 |
| 20260508203406 | 75 | 0 | 3.0 | 12.0 | 0.00 | 0.00 | 0.00 | 29 | 1014.5 |
| 20260508203242 | 75 | 0 | 3.0 | 12.0 | 0.00 | 0.00 | 0.00 | 29 | 1014.5 |
| 20260508202635 | 75 | 0 | 5.0 | 12.0 | 0.00 | 0.00 | 0.00 | 29 | 1014.6 |
| 20260508202108 | 74 | 0 | 4.0 | 12.0 | 0.00 | 0.00 | 0.00 | 30 | 1014.5 |
| 20260508201605 | 74 | 0 | 3.0 | 12.0 | 0.00 | 0.00 | 0.00 | 32 | 1014.6 |
| 20260508201049 | 73 | 0 | 3.0 | 13.0 | 0.00 | 0.00 | 0.00 | 34 | 1014.6 |
| 20260508200536 | 73 | 0 | 4.0 | 13.0 | 0.00 | 0.00 | 0.00 | 32 | 1014.6 |
| 20260508200014 | 72 | 0 | 4.0 | 11.0 | 0.00 | 0.00 | 0.00 | 33 | 1014.7 |
| 20260508195514 | 72 | 0 | 5.0 | 12.0 | 0.00 | 0.00 | 0.00 | 34 | 1014.6 |
| 20260508195004 | 72 | 0 | 4.0 | 12.0 | 0.00 | 0.00 | 0.00 | 32 | 1014.7 |
| 20260508194459 | 73 | 0 | 4.0 | 11.0 | 0.00 | 0.00 | 0.00 | 32 | 1014.7 |
| 20260508193959 | 73 | 0 | 4.0 | 11.0 | 0.00 | 0.00 | 0.00 | 32 | 1014.7 |
| 20260508193439 | 73 | 0 | 3.0 | 9.0 | 0.00 | 0.00 | 0.00 | 33 | 1014.7 |
| 20260508192939 | 74 | 0 | 4.0 | 13.0 | 0.00 | 0.00 | 0.00 | 30 | 1014.7 |
| 20260508192914 | 74 | 0 | 3.0 | 13.0 | 0.00 | 0.00 | 0.00 | 30 | 1014.7 |
| 20260508192838 | 74 | 0 | 4.0 | 13.0 | 0.00 | 0.00 | 0.00 | 30 | 1014.7 |
| 20260508191914 | 75 | 0 | 5.0 | 14.0 | 0.00 | 0.00 | 0.00 | 31 | 1014.8 |
| 20260508191349 | 74 | 0 | 4.0 | 14.0 | 0.00 | 0.00 | 0.00 | 31 | 1014.8 |
| 20260508191057 | 74 | 0 | 4.0 | 11.0 | 0.00 | 0.00 | 0.00 | 31 | 1014.8 |
| 20260508190938 | 74 | 0 | 4.0 | 11.0 | 0.00 | 0.00 | 0.00 | 31 | 1014.8 |
| 20260508190331 | 74 | 0 | 5.0 | 15.0 | 0.00 | 0.00 | 0.00 | 29 | 1014.8 |
| 20260508185808 | 74 | 0 | 5.0 | 15.0 | 0.00 | 0.00 | 0.00 | 31 | 1014.8 |
| 20260508185246 | 73 | 0 | 5.0 | 15.0 | 0.00 | 0.00 | 0.00 | 33 | 1014.8 |
| 20260508184752 | 73 | 0 | 4.0 | 17.0 | 0.00 | 0.00 | 0.00 | 29 | 1014.8 |
| 20260508184247 | 74 | 0 | 3.0 | 17.0 | 0.00 | 0.00 | 0.00 | 30 | 1014.9 |
| 20260508183725 | 72 | 0 | 5.0 | 14.0 | 0.00 | 0.00 | 0.00 | 32 | 1014.8 |
| 20260508183159 | 72 | 0 | 5.0 | 14.0 | 0.00 | 0.00 | 0.00 | 30 | 1014.8 |
| 20260508182657 | 71 | 0 | 5.0 | 14.0 | 0.00 | 0.00 | 0.00 | 31 | 1014.9 |
| 20260508182639 | 71 | 0 | 6.0 | 13.0 | 0.00 | 0.00 | 0.00 | 31 | 1014.9 |
| 20260508182259 | 71 | 0 | 6.0 | 13.0 | 0.00 | 0.00 | 0.00 | 31 | 1014.9 |
| 20260508181654 | 71 | 0 | 6.0 | 15.0 | 0.00 | 0.00 | 0.00 | 31 | 1015.0 |
| 20260508181131 | 72 | 0 | 4.0 | 12.0 | 0.00 | 0.00 | 0.00 | 31 | 1015.0 |
| 20260508180608 | 72 | 0 | 4.0 | 10.0 | 0.00 | 0.00 | 0.00 | 33 | 1015.0 |
| 20260508180112 | 72 | 0 | 5.0 | 13.0 | 0.00 | 0.00 | 0.00 | 31 | 1015.0 |
| 20260508175809 | 72 | 0 | 4.0 | 13.0 | 0.00 | 0.00 | 0.00 | 31 | 1015.0 |
| 20260508175650 | 72 | 0 | 4.0 | 13.0 | 0.00 | 0.00 | 0.00 | 31 | 1015.0 |
| 20260508175044 | 72 | 0 | 4.0 | 16.0 | 0.00 | 0.00 | 0.00 | 32 | 1015.2 |
| 20260508174519 | 71 | 0 | 4.0 | 14.0 | 0.00 | 0.00 | 0.00 | 32 | 1015.2 |
| 20260508174223 | 71 | 0 | 5.0 | 14.0 | 0.00 | 0.00 | 0.00 | 33 | 1015.3 |
| 20260508174057 | 71 | 0 | 5.0 | 14.0 | 0.00 | 0.00 | 0.00 | 33 | 1015.3 |
| 20260508173454 | 70 | 0 | 4.0 | 12.0 | 0.00 | 0.00 | 0.00 | 34 | 1015.2 |
| 20260508172948 | 70 | 0 | 5.0 | 12.0 | 0.00 | 0.00 | 0.00 | 36 | 1015.2 |
| 20260508172423 | 70 | 0 | 5.0 | 14.0 | 0.00 | 0.00 | 0.00 | 35 | 1015.4 |
| 20260508171910 | 71 | 0 | 4.0 | 14.0 | 0.00 | 0.00 | 0.00 | 35 | 1015.4 |